Tracking 20942 objects as of 14-Jul-2020
HD Live streaming from Space Station
objects crossing your sky now

COSMOS 1375 DEB

Track COSMOS 1375 DEB now!
10-day predictions


NORAD ID: 17807
Int'l Code: 1982-055AZ
Perigee: 927.4 km
Apogee: 1,022.4 km
Inclination: 65.8 °
Period: 104.4 minutes
Semi major axis: 7345 km
RCS: 0.033 m2 (small)
Launch date: June 6, 1982
Source: Commonwealth of Independent States (former USSR) (CIS)
Launch site: PLESETSK MISSILE AND SPACE COMPLEX (PKMTR)

Note: This is SATELLITE DEBRIS
aabbcc
Your satellite tracking list
Your tracking list is empty




NASA's NSSDC Master Catalog

Two Line Element Set (TLE):
1 17807U 82055AZ  20195.82265737 +.00000050 +00000-0 +12652-3 0  9994
2 17807 065.8323 098.6397 0064692 308.0765 158.3203 13.78905620740778
Source of the keplerian elements: AFSPC